Year,Month,Day,Hour,Minute,Value (Times are PST for temperature in C)
2012,07,04,00,00,11.30
2012,07,04,00,01,11.30
2012,07,04,00,02,11.30
2012,07,04,00,03,11.30
2012,07,04,00,04,11.30
2012,07,04,00,05,11.30
2012,07,04,00,06,11.20
2012,07,04,00,07,11.20
2012,07,04,00,08,11.20
2012,07,04,00,09,11.20
2012,07,04,00,10,11.20
2012,07,04,00,11,11.20
2012,07,04,00,12,11.20
2012,07,04,00,13,11.20
2012,07,04,00,14,11.20
2012,07,04,00,15,11.20
2012,07,04,00,16,11.20
2012,07,04,00,17,11.30
2012,07,04,00,18,11.30
2012,07,04,00,19,11.30
2012,07,04,00,20,11.30
2012,07,04,00,21,11.30
2012,07,04,00,22,11.30
2012,07,04,00,23,11.30
2012,07,04,00,24,11.20
2012,07,04,00,25,11.20
2012,07,04,00,26,11.20
2012,07,04,00,27,11.10
2012,07,04,00,28,11.10
2012,07,04,00,29,11.10
2012,07,04,00,30,11.10
2012,07,04,00,31,11.10
2012,07,04,00,32,11.00
2012,07,04,00,33,10.90
2012,07,04,00,34,10.90
2012,07,04,00,35,10.90
2012,07,04,00,36,10.90
2012,07,04,00,37,10.90
2012,07,04,00,38,10.80
2012,07,04,00,39,10.80
2012,07,04,00,40,10.80
2012,07,04,00,41,10.80
2012,07,04,00,42,10.80
2012,07,04,00,43,10.80
2012,07,04,00,44,10.80
2012,07,04,00,45,10.80
2012,07,04,00,46,10.80
2012,07,04,00,47,10.80
2012,07,04,00,48,10.80
2012,07,04,00,49,10.80
2012,07,04,00,50,10.80
2012,07,04,00,51,10.80
2012,07,04,00,52,10.80
2012,07,04,00,53,10.80
2012,07,04,00,54,10.70
2012,07,04,00,55,10.70
2012,07,04,00,56,10.70
2012,07,04,00,57,10.70
2012,07,04,00,58,10.70
2012,07,04,00,59,10.70
2012,07,04,01,00,10.70
2012,07,04,01,01,10.70
2012,07,04,01,02,10.70
2012,07,04,01,03,10.70
2012,07,04,01,04,10.70
2012,07,04,01,05,10.70
2012,07,04,01,06,10.70
2012,07,04,01,07,10.60
2012,07,04,01,08,10.60
2012,07,04,01,09,10.60
2012,07,04,01,10,10.60
2012,07,04,01,11,10.60
2012,07,04,01,12,10.60
2012,07,04,01,13,10.60
2012,07,04,01,14,10.60
2012,07,04,01,15,10.60
2012,07,04,01,16,10.60
2012,07,04,01,17,10.60
2012,07,04,01,18,10.60
2012,07,04,01,19,10.60
2012,07,04,01,20,10.60
2012,07,04,01,21,10.60
2012,07,04,01,22,10.60
2012,07,04,01,23,10.60
2012,07,04,01,24,10.60
2012,07,04,01,25,10.60
2012,07,04,01,26,10.60
2012,07,04,01,27,10.60
2012,07,04,01,28,10.60
2012,07,04,01,29,10.60
2012,07,04,01,30,10.60
2012,07,04,01,31,10.60
2012,07,04,01,32,10.60
2012,07,04,01,33,10.60
2012,07,04,01,34,10.60
2012,07,04,01,35,10.60
2012,07,04,01,36,10.60
2012,07,04,01,37,10.70
2012,07,04,01,38,10.70
2012,07,04,01,39,10.70
2012,07,04,01,40,10.70
2012,07,04,01,41,10.70
2012,07,04,01,42,10.70
2012,07,04,01,43,10.70
2012,07,04,01,44,10.70
2012,07,04,01,45,10.60
2012,07,04,01,46,10.60
2012,07,04,01,47,10.60
2012,07,04,01,48,10.60
2012,07,04,01,49,10.60
2012,07,04,01,50,10.60
2012,07,04,01,51,10.60
2012,07,04,01,52,10.60
2012,07,04,01,53,10.70
2012,07,04,01,54,10.70
2012,07,04,01,55,10.70
2012,07,04,01,56,10.70
2012,07,04,01,57,10.80
2012,07,04,01,58,10.80
2012,07,04,01,59,10.80
2012,07,04,02,00,10.80
2012,07,04,02,01,10.80
2012,07,04,02,02,10.90
2012,07,04,02,03,10.90
2012,07,04,02,04,10.90
2012,07,04,02,05,10.90
2012,07,04,02,06,10.90
2012,07,04,02,07,10.90
2012,07,04,02,08,10.90
2012,07,04,02,09,11.00
2012,07,04,02,10,11.10
2012,07,04,02,11,10.90
2012,07,04,02,12,10.90
2012,07,04,02,13,10.90
2012,07,04,02,14,11.00
2012,07,04,02,15,11.10
2012,07,04,02,16,11.10
2012,07,04,02,17,11.10
2012,07,04,02,18,11.00
2012,07,04,02,19,11.00
2012,07,04,02,20,11.00
2012,07,04,02,21,11.10
2012,07,04,02,22,11.10
2012,07,04,02,23,11.10
2012,07,04,02,24,11.10
2012,07,04,02,25,11.10
2012,07,04,02,26,11.10
2012,07,04,02,27,11.10
2012,07,04,02,28,11.10
2012,07,04,02,29,11.10
2012,07,04,02,30,11.10
2012,07,04,02,31,11.10
2012,07,04,02,32,11.10
2012,07,04,02,33,11.10
2012,07,04,02,34,11.10
2012,07,04,02,35,11.10
2012,07,04,02,36,11.10
2012,07,04,02,37,11.10
2012,07,04,02,38,11.10
2012,07,04,02,39,11.10
2012,07,04,02,40,11.10
2012,07,04,02,41,11.00
2012,07,04,02,42,10.90
2012,07,04,02,43,10.90
2012,07,04,02,44,10.90
2012,07,04,02,45,10.90
2012,07,04,02,46,10.90
2012,07,04,02,47,10.90
2012,07,04,02,48,10.90
2012,07,04,02,49,10.90
2012,07,04,02,50,10.90
2012,07,04,02,51,10.90
2012,07,04,02,52,10.90
2012,07,04,02,53,10.90
2012,07,04,02,54,10.90
2012,07,04,02,55,10.90
2012,07,04,02,56,10.90
2012,07,04,02,57,10.90
2012,07,04,12,18,14.40
2012,07,04,12,19,14.50
2012,07,04,12,20,14.50
2012,07,04,12,21,14.60
2012,07,04,12,22,14.70
2012,07,04,12,23,14.80
2012,07,04,12,24,14.80
2012,07,04,12,25,14.70
2012,07,04,12,26,14.60
2012,07,04,12,27,14.60
2012,07,04,12,28,14.70
2012,07,04,12,29,14.70
2012,07,04,12,30,14.80
2012,07,04,12,31,14.80
2012,07,04,12,32,14.80
2012,07,04,12,33,14.80
2012,07,04,12,34,14.80
2012,07,04,12,35,14.80
2012,07,04,12,36,14.80
2012,07,04,12,37,14.80
2012,07,04,12,38,14.80
2012,07,04,12,39,14.90
2012,07,04,12,40,14.90
2012,07,04,12,41,14.90
2012,07,04,12,42,14.90
2012,07,04,12,43,15.00
2012,07,04,12,44,15.00
2012,07,04,12,45,15.00
2012,07,04,12,46,15.00
2012,07,04,12,47,15.00
2012,07,04,12,48,15.10
2012,07,04,12,49,15.10
2012,07,04,12,50,15.10
2012,07,04,12,51,15.10
2012,07,04,12,52,15.10
2012,07,04,12,53,15.10
2012,07,04,12,54,15.00
2012,07,04,12,55,14.90
2012,07,04,12,56,14.80
2012,07,04,12,57,14.80
2012,07,04,12,58,14.70
2012,07,04,12,59,14.80
2012,07,04,13,00,14.80
2012,07,04,13,01,14.80
2012,07,04,13,02,14.90
2012,07,04,13,03,15.00
2012,07,04,13,04,15.00
2012,07,04,13,05,15.10
2012,07,04,13,06,15.00
2012,07,04,13,07,15.00
2012,07,04,13,08,15.10
2012,07,04,13,09,15.10
2012,07,04,13,10,15.10
2012,07,04,13,11,15.10
2012,07,04,13,12,15.10
2012,07,04,13,13,15.10
2012,07,04,13,14,15.10
2012,07,04,13,15,15.10
2012,07,04,13,16,15.00
2012,07,04,13,17,15.00
2012,07,04,13,18,15.00
2012,07,04,13,19,15.00
2012,07,04,13,20,15.00
2012,07,04,13,21,15.10
2012,07,04,13,22,15.10
2012,07,04,13,23,15.10
2012,07,04,13,24,15.10
2012,07,04,13,25,15.00
2012,07,04,13,26,15.10
2012,07,04,13,27,15.20
2012,07,04,13,28,15.40
2012,07,04,13,29,15.50
2012,07,04,13,30,15.60
2012,07,04,13,31,15.60
2012,07,04,13,32,15.70
2012,07,04,13,33,15.70
2012,07,04,13,34,15.60
2012,07,04,13,35,15.60
2012,07,04,13,36,15.60
2012,07,04,13,37,15.50
2012,07,04,13,38,15.40
2012,07,04,13,39,15.20
2012,07,04,13,40,15.10
2012,07,04,13,41,15.00
2012,07,04,13,42,14.90
2012,07,04,13,43,14.80
2012,07,04,13,44,14.80
2012,07,04,13,45,14.80
2012,07,04,13,46,14.80
2012,07,04,13,47,14.70
2012,07,04,13,48,14.70
2012,07,04,13,49,14.70
2012,07,04,13,50,14.70
2012,07,04,13,51,14.70
2012,07,04,13,52,14.70
2012,07,04,13,53,14.50
2012,07,04,13,54,14.50
2012,07,04,13,55,14.40
2012,07,04,13,56,14.30
2012,07,04,13,57,14.20
2012,07,04,13,58,14.30
2012,07,04,13,59,14.20
2012,07,04,14,00,14.20
2012,07,04,14,01,14.20
2012,07,04,14,02,14.30
2012,07,04,14,03,14.20
2012,07,04,14,04,14.10
2012,07,04,14,05,14.00
2012,07,04,14,06,13.90
2012,07,04,14,07,13.90
2012,07,04,14,08,13.90
2012,07,04,14,09,13.90
2012,07,04,14,10,13.90
2012,07,04,14,11,13.80
2012,07,04,14,12,13.60
2012,07,04,14,13,13.60
2012,07,04,14,14,13.60
2012,07,04,14,15,13.60
2012,07,04,14,16,13.70
2012,07,04,14,17,13.80
2012,07,04,14,18,13.90
2012,07,04,14,19,13.80
2012,07,04,14,20,13.90
2012,07,04,14,21,14.00
2012,07,04,14,22,14.10
2012,07,04,14,23,14.20
2012,07,04,14,24,14.20
2012,07,04,14,25,14.20
2012,07,04,14,26,14.20
2012,07,04,14,27,14.10
2012,07,04,14,28,14.10
2012,07,04,14,29,14.20
2012,07,04,14,30,14.20
2012,07,04,14,31,14.20
2012,07,04,14,32,14.20
2012,07,04,14,33,14.30
2012,07,04,14,34,14.40
2012,07,04,14,35,14.50
2012,07,04,14,36,14.60
2012,07,04,14,37,14.70
2012,07,04,14,38,14.70
2012,07,04,14,39,14.70
2012,07,04,14,40,14.80
2012,07,04,14,41,14.80
2012,07,04,14,42,14.80
2012,07,04,14,43,14.80
2012,07,04,14,44,14.80
2012,07,04,14,45,14.80
2012,07,04,14,46,14.80
2012,07,04,14,47,14.80
2012,07,04,14,48,14.70
2012,07,04,14,49,14.60
2012,07,04,14,50,14.40
2012,07,04,14,51,14.20
2012,07,04,14,52,14.10
2012,07,04,14,53,14.00
2012,07,04,14,54,14.00
2012,07,04,14,55,14.10
2012,07,04,14,56,14.10
2012,07,04,14,57,14.10
2012,07,04,14,58,14.20
2012,07,04,14,59,14.40
2012,07,04,15,00,14.50
2012,07,04,15,01,14.60
2012,07,04,15,02,14.60
2012,07,04,15,03,14.60
2012,07,04,15,04,14.60
2012,07,04,15,05,14.60
2012,07,04,15,06,14.70
2012,07,04,15,07,14.70
2012,07,04,15,08,14.80
2012,07,04,15,09,15.00
2012,07,04,15,10,15.00
2012,07,04,15,11,15.00
2012,07,04,15,12,15.00
2012,07,04,15,13,14.90
2012,07,04,15,14,14.90
2012,07,04,15,15,15.00
2012,07,04,15,16,15.00
2012,07,04,15,17,15.00
2012,07,04,15,18,15.00
2012,07,04,15,19,15.00
2012,07,04,15,20,14.90
2012,07,04,15,21,14.90
2012,07,04,15,22,14.80
2012,07,04,15,23,14.80
2012,07,04,15,24,14.80
2012,07,04,15,25,14.80
2012,07,04,15,26,14.80
2012,07,04,15,27,14.90
2012,07,04,15,28,15.00
2012,07,04,15,29,15.00
2012,07,04,15,30,15.00
2012,07,04,15,31,15.10
2012,07,04,15,32,15.30
2012,07,04,15,33,15.40
2012,07,04,15,34,15.50
2012,07,04,15,35,15.50
2012,07,04,15,36,15.50
2012,07,04,15,37,15.50
2012,07,04,15,38,15.60
2012,07,04,15,39,15.70
2012,07,04,15,40,15.80
2012,07,04,15,41,15.80
2012,07,04,15,42,15.80
2012,07,04,15,43,15.80
2012,07,04,15,44,15.80
2012,07,04,15,45,15.80
2012,07,04,15,46,15.80
2012,07,04,15,47,15.90
2012,07,04,15,48,15.90
2012,07,04,15,49,16.00
2012,07,04,15,50,16.10
2012,07,04,15,51,16.10
2012,07,04,15,52,16.20
2012,07,04,15,53,16.10
2012,07,04,15,54,16.20
2012,07,04,15,55,16.20
2012,07,04,15,56,16.30
2012,07,04,15,57,16.30
2012,07,04,15,58,16.30
2012,07,04,15,59,16.30
2012,07,04,16,00,16.40
2012,07,04,16,01,16.50
2012,07,04,16,02,16.60
2012,07,04,16,03,16.50
2012,07,04,16,04,16.50
2012,07,04,16,05,16.60
2012,07,04,16,06,16.50
2012,07,04,16,07,16.40
2012,07,04,16,08,16.40
2012,07,04,16,09,16.50
2012,07,04,16,10,16.40
2012,07,04,16,11,16.40
2012,07,04,16,12,16.40
2012,07,04,16,13,16.40
2012,07,04,16,14,16.40
2012,07,04,16,15,16.40
2012,07,04,16,16,16.40
2012,07,04,16,17,16.40
2012,07,04,16,18,16.40
2012,07,04,16,19,16.30
2012,07,04,16,20,16.20
2012,07,04,16,21,16.20
2012,07,04,16,22,16.10
2012,07,04,16,23,16.10
2012,07,04,16,24,16.10
2012,07,04,16,25,15.90
2012,07,04,16,26,15.80
2012,07,04,16,27,15.80
2012,07,04,16,28,15.80
2012,07,04,16,29,15.70
2012,07,04,16,30,15.60
2012,07,04,16,31,15.50
2012,07,04,16,32,15.40
2012,07,04,16,33,15.40
2012,07,04,16,34,15.30
2012,07,04,16,35,15.30
2012,07,04,16,36,15.30
2012,07,04,16,37,15.30
2012,07,04,16,38,15.30
2012,07,04,16,39,15.30
2012,07,04,16,40,15.30
2012,07,04,16,41,15.30
2012,07,04,16,42,15.30
2012,07,04,16,43,15.30
2012,07,04,16,44,15.30
2012,07,04,16,45,15.30
2012,07,04,16,46,15.20
2012,07,04,16,47,15.20
2012,07,04,16,48,15.20
2012,07,04,16,49,15.20
2012,07,04,16,50,15.20
2012,07,04,16,51,15.20
2012,07,04,16,52,15.20
2012,07,04,16,53,15.10
2012,07,04,16,54,15.20
2012,07,04,16,55,15.20
2012,07,04,16,56,15.30
2012,07,04,16,57,15.30
2012,07,04,16,58,15.30
2012,07,04,16,59,15.30
2012,07,04,17,00,15.30
2012,07,04,17,01,15.30
2012,07,04,17,02,15.20
2012,07,04,17,03,15.20
2012,07,04,17,04,15.30
2012,07,04,17,05,15.30
2012,07,04,17,06,15.30
2012,07,04,17,07,15.30
2012,07,04,17,08,15.30
2012,07,04,17,09,15.20
2012,07,04,17,10,15.10
2012,07,04,17,11,15.10
2012,07,04,17,12,15.10
2012,07,04,17,13,15.00
2012,07,04,17,14,15.10
2012,07,04,17,15,15.10
2012,07,04,17,16,15.10
2012,07,04,17,17,15.10
2012,07,04,17,18,15.10
2012,07,04,17,19,15.10
2012,07,04,17,20,15.00
2012,07,04,17,21,14.90
2012,07,04,17,22,14.80
2012,07,04,17,23,14.80
2012,07,04,17,24,14.70
2012,07,04,17,25,14.70
2012,07,04,17,26,14.70
2012,07,04,17,27,14.70
2012,07,04,17,28,14.60
2012,07,04,17,29,14.50
2012,07,04,17,30,14.50
2012,07,04,17,31,14.50
2012,07,04,17,32,14.50
2012,07,04,17,33,14.50
2012,07,04,17,34,14.40
2012,07,04,17,35,14.50
2012,07,04,17,36,14.60
2012,07,04,17,37,14.70
2012,07,04,17,38,14.70
2012,07,04,17,39,14.80
2012,07,04,17,40,15.00
2012,07,04,17,41,15.10
2012,07,04,17,42,15.20
2012,07,04,17,43,15.30
2012,07,04,17,44,15.30
2012,07,04,17,45,15.30
2012,07,04,17,46,15.40
2012,07,04,17,47,15.40
2012,07,04,17,48,15.40
2012,07,04,17,49,15.30
2012,07,04,17,50,15.40
2012,07,04,17,51,15.40
2012,07,04,17,52,15.50
2012,07,04,17,53,15.50
2012,07,04,17,54,15.60
2012,07,04,17,55,15.70
2012,07,04,17,56,15.70
2012,07,04,17,57,15.70
2012,07,04,17,58,15.70
2012,07,04,17,59,15.70
2012,07,04,18,00,15.70
2012,07,04,18,01,15.80
2012,07,04,18,02,15.80
2012,07,04,18,03,15.80
2012,07,04,18,04,15.80
2012,07,04,18,05,15.80
2012,07,04,18,06,15.80
2012,07,04,18,07,15.80
2012,07,04,18,08,15.80
2012,07,04,18,09,15.90
2012,07,04,18,10,16.00
2012,07,04,18,11,16.10
2012,07,04,18,12,16.10
2012,07,04,18,13,16.10
2012,07,04,18,14,16.10
2012,07,04,18,15,16.10
2012,07,04,18,16,16.10
2012,07,04,18,17,16.10
2012,07,04,18,18,16.10
2012,07,04,18,19,16.10
2012,07,04,18,20,16.20
2012,07,04,18,21,16.20
2012,07,04,18,22,16.30
2012,07,04,18,23,16.30
2012,07,04,18,24,16.30
2012,07,04,18,25,16.40
2012,07,04,18,26,16.40
2012,07,04,18,27,16.40
2012,07,04,18,28,16.50
2012,07,04,18,29,16.60
2012,07,04,18,30,16.70
2012,07,04,18,31,16.70
2012,07,04,18,32,16.70
2012,07,04,18,33,16.70
2012,07,04,18,34,16.70
2012,07,04,18,35,16.70
2012,07,04,18,36,16.70
2012,07,04,18,37,16.70
2012,07,04,18,38,16.70
2012,07,04,18,39,16.60
2012,07,04,18,40,16.60
2012,07,04,18,41,16.70
2012,07,04,18,42,16.70
2012,07,04,18,43,16.70
2012,07,04,18,44,16.70
2012,07,04,18,45,16.70
2012,07,04,18,46,16.70
2012,07,04,18,47,16.70
2012,07,04,18,48,16.70
2012,07,04,18,49,16.70
2012,07,04,18,50,16.70
2012,07,04,18,51,16.70
2012,07,04,18,52,16.70
2012,07,04,18,53,16.70
2012,07,04,18,54,16.80
2012,07,04,18,55,16.80
2012,07,04,18,56,16.90
2012,07,04,18,57,16.90
2012,07,04,18,58,16.90
2012,07,04,18,59,16.90
2012,07,04,19,00,17.00
2012,07,04,19,01,17.00
2012,07,04,19,02,17.00
2012,07,04,19,03,17.00
2012,07,04,19,04,17.00
2012,07,04,19,05,17.10
2012,07,04,19,06,17.20
2012,07,04,19,07,17.30
2012,07,04,19,08,17.30
2012,07,04,19,09,17.40
2012,07,04,19,10,17.40
2012,07,04,19,11,17.50
2012,07,04,19,12,17.50
2012,07,04,19,13,17.60
2012,07,04,19,14,17.60
2012,07,04,19,15,17.60
2012,07,04,19,16,17.70
2012,07,04,19,17,17.80
2012,07,04,19,18,17.90
2012,07,04,19,19,18.00
2012,07,04,19,20,18.10
2012,07,04,19,21,18.20
2012,07,04,19,22,18.20
2012,07,04,19,23,18.20
2012,07,04,19,24,18.20
2012,07,04,19,25,18.20
2012,07,04,19,26,18.20
2012,07,04,19,27,18.20
2012,07,04,19,28,18.10
2012,07,04,19,29,18.10
2012,07,04,19,30,18.10
2012,07,04,19,31,18.10
2012,07,04,19,32,18.10
2012,07,04,19,33,18.10
2012,07,04,19,34,18.20
2012,07,04,19,35,18.20
2012,07,04,19,36,18.20
2012,07,04,19,37,18.20
2012,07,04,19,38,18.20
2012,07,04,19,39,18.20
2012,07,04,19,40,18.20
2012,07,04,19,41,18.10
2012,07,04,19,42,18.00
2012,07,04,19,43,17.90
2012,07,04,19,44,17.90
2012,07,04,19,45,17.90
2012,07,04,19,46,17.90
2012,07,04,19,47,17.90
2012,07,04,19,48,17.90
2012,07,04,19,49,17.90
2012,07,04,19,50,17.90
2012,07,04,19,51,17.90
2012,07,04,19,52,17.90
2012,07,04,19,53,17.90
2012,07,04,19,54,17.80
2012,07,04,19,55,17.70
2012,07,04,19,56,17.70
2012,07,04,19,57,17.70
2012,07,04,19,58,17.70
2012,07,04,19,59,17.70
2012,07,04,20,00,17.70
2012,07,04,20,01,17.80
2012,07,04,20,02,17.80
2012,07,04,20,03,17.80
2012,07,04,20,04,17.80
2012,07,04,20,05,17.80
2012,07,04,20,06,17.80
2012,07,04,20,07,17.70
2012,07,04,20,08,17.70
2012,07,04,20,09,17.60
2012,07,04,20,10,17.50
2012,07,04,20,11,17.50
2012,07,04,20,12,17.40
2012,07,04,20,13,17.40
2012,07,04,20,14,17.30
2012,07,04,20,15,17.30
2012,07,04,20,16,17.30
2012,07,04,20,17,17.20
2012,07,04,20,18,17.20
2012,07,04,20,19,17.20
2012,07,04,20,20,17.20
2012,07,04,20,21,17.20
2012,07,04,20,22,17.20
2012,07,04,20,23,17.20
2012,07,04,20,24,17.20
2012,07,04,20,25,17.10
2012,07,04,20,26,17.10
2012,07,04,20,27,17.10
2012,07,04,20,28,17.10
2012,07,04,20,29,17.10
2012,07,04,20,30,17.00
2012,07,04,20,31,16.90
2012,07,04,20,32,16.90
2012,07,04,20,33,16.90
2012,07,04,20,34,16.80
2012,07,04,20,35,16.70
2012,07,04,20,36,16.70
2012,07,04,20,37,16.70
2012,07,04,20,38,16.60
2012,07,04,20,39,16.50
2012,07,04,20,40,16.40
2012,07,04,20,41,16.40
2012,07,04,20,42,16.40
2012,07,04,20,43,16.40
2012,07,04,20,44,16.30
2012,07,04,20,45,16.30
2012,07,04,20,46,16.30
2012,07,04,20,47,16.20
2012,07,04,20,48,16.20
2012,07,04,20,49,16.10
2012,07,04,20,50,16.10
2012,07,04,20,51,16.00
2012,07,04,20,52,15.90
2012,07,04,20,53,15.80
2012,07,04,20,54,15.80
2012,07,04,20,55,15.80
2012,07,04,20,56,15.70
2012,07,04,20,57,15.70
2012,07,04,20,58,15.60
2012,07,04,20,59,15.60
2012,07,04,21,00,15.50
2012,07,04,21,01,15.50
2012,07,04,21,02,15.50
2012,07,04,21,03,15.50
2012,07,04,21,04,15.40
2012,07,04,21,05,15.40
2012,07,04,21,06,15.40
2012,07,04,21,07,15.40
2012,07,04,21,08,15.30
2012,07,04,21,09,15.30
2012,07,04,21,10,15.30
2012,07,04,21,11,15.30
2012,07,04,21,12,15.30
2012,07,04,21,13,15.30
2012,07,04,21,14,15.30
2012,07,04,21,15,15.20
2012,07,04,21,16,15.20
2012,07,04,21,17,15.20
2012,07,04,21,18,15.20
2012,07,04,21,19,15.20
2012,07,04,21,20,15.20
2012,07,04,21,21,15.20
2012,07,04,21,22,15.10
2012,07,04,21,23,15.10
2012,07,04,21,24,15.10
2012,07,04,21,25,15.10
2012,07,04,21,26,15.10
2012,07,04,21,27,15.10
2012,07,04,21,28,15.00
2012,07,04,21,29,15.00
2012,07,04,21,30,15.00
2012,07,04,21,31,15.00
2012,07,04,21,32,15.00
2012,07,04,21,33,15.00
2012,07,04,21,34,15.00
2012,07,04,21,35,15.00
2012,07,04,21,36,15.00
2012,07,04,21,37,14.90
2012,07,04,21,38,14.90
2012,07,04,21,39,14.90
2012,07,04,21,40,14.90
2012,07,04,21,41,14.90
2012,07,04,21,42,14.80
2012,07,04,21,43,14.80
2012,07,04,21,44,14.80
2012,07,04,21,45,14.80
2012,07,04,21,46,14.80
2012,07,04,21,47,14.80
2012,07,04,21,48,14.80
2012,07,04,21,49,14.80
2012,07,04,21,50,14.80
2012,07,04,21,51,14.70
2012,07,04,21,52,14.70
2012,07,04,21,53,14.70
2012,07,04,21,54,14.70
2012,07,04,21,55,14.70
2012,07,04,21,56,14.70
2012,07,04,21,57,14.70
2012,07,04,21,58,14.60
2012,07,04,21,59,14.60
2012,07,04,22,00,14.60
2012,07,04,22,01,14.60
2012,07,04,22,02,14.50
2012,07,04,22,03,14.50
2012,07,04,22,04,14.50
2012,07,04,22,05,14.50
2012,07,04,22,06,14.40
2012,07,04,22,07,14.40
2012,07,04,22,08,14.40
2012,07,04,22,09,14.40
2012,07,04,22,10,14.40
2012,07,04,22,11,14.30
2012,07,04,22,12,14.30
2012,07,04,22,13,14.30
2012,07,04,22,14,14.30
2012,07,04,22,15,14.20
2012,07,04,22,16,14.20
2012,07,04,22,17,14.20
2012,07,04,22,18,14.20
2012,07,04,22,19,14.20
2012,07,04,22,20,14.20
2012,07,04,22,21,14.20
2012,07,04,22,22,14.20
2012,07,04,22,23,14.20
2012,07,04,22,24,14.20
2012,07,04,22,25,14.10
2012,07,04,22,26,14.10
2012,07,04,22,27,14.10
2012,07,04,22,28,14.10
2012,07,04,22,29,14.10
2012,07,04,22,30,14.10
2012,07,04,22,31,14.10
2012,07,04,22,32,14.10
2012,07,04,22,33,14.00
2012,07,04,22,34,14.00
2012,07,04,22,35,14.00
2012,07,04,22,36,14.00
2012,07,04,22,37,14.00
2012,07,04,22,38,13.90
2012,07,04,22,39,13.90
2012,07,04,22,40,13.90
2012,07,04,22,41,13.90
2012,07,04,22,42,13.80
2012,07,04,22,43,13.80
2012,07,04,22,44,13.80
2012,07,04,22,45,13.70
2012,07,04,22,46,13.70
2012,07,04,22,47,13.70
2012,07,04,22,48,13.70
2012,07,04,22,49,13.80
2012,07,04,22,50,13.80
2012,07,04,22,51,13.80
2012,07,04,22,52,13.90
2012,07,04,22,53,13.90
2012,07,04,22,54,13.90
2012,07,04,22,55,13.90
2012,07,04,22,56,13.80
2012,07,04,22,57,13.80
2012,07,04,22,58,13.80
2012,07,04,22,59,13.70
2012,07,04,23,00,13.70
2012,07,04,23,01,13.70
2012,07,04,23,02,13.70
2012,07,04,23,03,13.70
2012,07,04,23,04,13.70
2012,07,04,23,05,13.70
2012,07,04,23,06,13.70
2012,07,04,23,07,13.70
2012,07,04,23,08,13.70
2012,07,04,23,09,13.70
2012,07,04,23,10,13.60
2012,07,04,23,11,13.60
2012,07,04,23,12,13.60
2012,07,04,23,13,13.60
2012,07,04,23,14,13.50
2012,07,04,23,15,13.50
2012,07,04,23,16,13.50
2012,07,04,23,17,13.40
2012,07,04,23,18,13.40
2012,07,04,23,19,13.30
2012,07,04,23,20,13.30
2012,07,04,23,21,13.30
2012,07,04,23,22,13.30
2012,07,04,23,23,13.20
2012,07,04,23,24,13.20
2012,07,04,23,25,13.10
2012,07,04,23,26,13.10
2012,07,04,23,27,13.10
2012,07,04,23,28,13.00
2012,07,04,23,29,13.00
2012,07,04,23,30,13.00
2012,07,04,23,31,13.00
2012,07,04,23,32,13.00
2012,07,04,23,33,13.00
2012,07,04,23,34,13.00
2012,07,04,23,35,12.90
2012,07,04,23,36,12.90
2012,07,04,23,37,12.90
2012,07,04,23,38,12.90
2012,07,04,23,39,12.90
2012,07,04,23,40,12.90
2012,07,04,23,41,12.90
2012,07,04,23,42,12.90
2012,07,04,23,43,12.90
2012,07,04,23,44,12.80
2012,07,04,23,45,12.80
2012,07,04,23,46,12.80
2012,07,04,23,47,12.80
2012,07,04,23,48,12.80
2012,07,04,23,49,12.80
2012,07,04,23,50,12.80
2012,07,04,23,51,12.80
2012,07,04,23,52,12.80
2012,07,04,23,53,12.80
2012,07,04,23,54,12.80
2012,07,04,23,55,12.70
2012,07,04,23,56,12.70
2012,07,04,23,57,12.70
2012,07,04,23,58,12.60
2012,07,04,23,59,12.60
